| time (UTC) | temp C | wind direction | speed KPH | gust KPH | rain 1hr cm | rain 24hr cm | rain mn cm | humidity % | barometer mb |
| 20260504033016 | 12 | 351 | 20.9 | 32.2 | 0.00 | 0.00 | 0.00 | 77 | 1033.5 |
| 20260504032032 | 12 | 349 | 20.9 | 33.8 | 0.00 | 0.00 | 0.00 | 75 | 1033.4 |
| 20260504031026 | 13 | 343 | 19.3 | 32.2 | 0.00 | 0.00 | 0.00 | 72 | 1033.4 |
| 20260504030022 | 13 | 325 | 24.1 | 46.7 | 0.00 | 0.00 | 0.00 | 73 | 1033.4 |
| 20260504025017 | 13 | 333 | 25.7 | 43.5 | 0.00 | 0.00 | 0.00 | 73 | 1033.5 |
| 20260504024032 | 13 | 351 | 22.5 | 32.2 | 0.00 | 0.00 | 0.00 | 75 | 1033.4 |
| 20260504023027 | 13 | 351 | 24.1 | 46.7 | 0.00 | 0.00 | 0.00 | 74 | 1033.3 |
| 20260504022022 | 13 | 349 | 19.3 | 32.2 | 0.00 | 0.00 | 0.00 | 72 | 1033.5 |
| 20260504021016 | 13 | 339 | 24.1 | 38.6 | 0.00 | 0.00 | 0.00 | 74 | 1033.5 |
| 20260504020032 | 13 | 334 | 24.1 | 37.0 | 0.00 | 0.00 | 0.00 | 73 | 1033.7 |
| 20260504015027 | 13 | 346 | 22.5 | 45.1 | 0.00 | 0.00 | 0.00 | 72 | 1033.7 |
| 20260504014022 | 14 | 326 | 25.7 | 45.1 | 0.00 | 0.00 | 0.00 | 71 | 1033.6 |
| 20260504013017 | 14 | 334 | 22.5 | 37.0 | 0.00 | 0.00 | 0.00 | 72 | 1033.7 |
| 20260504012032 | 13 | 345 | 22.5 | 33.8 | 0.00 | 0.00 | 0.00 | 74 | 1033.7 |
| 20260504011027 | 13 | 349 | 20.9 | 40.2 | 0.00 | 0.00 | 0.00 | 75 | 1033.8 |
| 20260504010022 | 13 | 350 | 25.7 | 38.6 | 0.00 | 0.00 | 0.00 | 75 | 1033.9 |
| 20260504005017 | 13 | 342 | 20.9 | 30.6 | 0.00 | 0.00 | 0.00 | 73 | 1033.9 |
| 20260504004032 | 13 | 338 | 20.9 | 33.8 | 0.00 | 0.00 | 0.00 | 72 | 1034.1 |
| 20260504003027 | 13 | 339 | 22.5 | 40.2 | 0.00 | 0.00 | 0.00 | 74 | 1034.3 |
| 20260504002022 | 13 | 350 | 24.1 | 40.2 | 0.00 | 0.00 | 0.00 | 74 | 1034.2 |
| 20260504001018 | 13 | 349 | 22.5 | 33.8 | 0.00 | 0.00 | 0.00 | 75 | 1034.4 |
| 20260504000033 | 13 | 347 | 27.4 | 40.2 | 0.00 | 0.00 | 0.00 | 75 | 1034.5 |
| 20260503235027 | 13 | 340 | 25.7 | 41.8 | 0.00 | 0.00 | 0.00 | 74 | 1034.7 |
| 20260503234023 | 13 | 343 | 24.1 | 37.0 | 0.00 | 0.00 | 0.00 | 73 | 1034.6 |
| 20260503233038 | 13 | 354 | 27.4 | 45.1 | 0.00 | 0.00 | 0.00 | 74 | 1034.5 |
| 20260503232053 | 13 | 350 | 20.9 | 37.0 | 0.00 | 0.00 | 0.00 | 74 | 1034.7 |
| 20260503231028 | 13 | 355 | 24.1 | 35.4 | 0.00 | 0.00 | 0.00 | 74 | 1034.7 |
| 20260503230042 | 13 | 353 | 25.7 | 40.2 | 0.00 | 0.00 | 0.00 | 75 | 1034.6 |
| 20260503225017 | 13 | 348 | 27.4 | 45.1 | 0.00 | 0.00 | 0.00 | 75 | 1034.7 |
| 20260503224033 | 13 | 356 | 20.9 | 40.2 | 0.00 | 0.00 | 0.00 | 76 | 1034.7 |
| 20260503223028 | 12 | 354 | 24.1 | 40.2 | 0.00 | 0.00 | 0.00 | 77 | 1034.5 |
| 20260503222023 | 12 | 341 | 27.4 | 37.0 | 0.00 | 0.00 | 0.00 | 77 | 1034.7 |
| 20260503221018 | 12 | 354 | 22.5 | 37.0 | 0.00 | 0.00 | 0.00 | 78 | 1034.6 |
| 20260503220033 | 12 | 354 | 22.5 | 33.8 | 0.00 | 0.00 | 0.00 | 79 | 1034.6 |
| 20260503215028 | 12 | 354 | 22.5 | 37.0 | 0.00 | 0.00 | 0.00 | 80 | 1034.7 |
| 20260503214043 | 12 | 348 | 20.9 | 33.8 | 0.00 | 0.00 | 0.00 | 80 | 1034.7 |
| 20260503213018 | 12 | 2 | 17.7 | 29.0 | 0.00 | 0.00 | 0.00 | 80 | 1034.7 |
| 20260503212034 | 12 | 352 | 20.9 | 33.8 | 0.00 | 0.00 | 0.00 | 80 | 1034.7 |
| 20260503211029 | 11 | 343 | 16.1 | 27.4 | 0.00 | 0.00 | 0.00 | 80 | 1034.7 |
| 20260503210024 | 11 | 357 | 19.3 | 29.0 | 0.00 | 0.00 | 0.00 | 80 | 1034.8 |
| 20260503205039 | 11 | 359 | 17.7 | 27.4 | 0.00 | 0.00 | 0.00 | 80 | 1034.8 |
| 20260503204034 | 11 | 2 | 16.1 | 27.4 | 0.00 | 0.00 | 0.00 | 79 | 1034.9 |
| 20260503203029 | 11 | 347 | 17.7 | 30.6 | 0.00 | 0.00 | 0.00 | 80 | 1034.8 |
| 20260503202025 | 11 | 347 | 17.7 | 30.6 | 0.00 | 0.00 | 0.00 | 81 | 1034.6 |
| 20260503201020 | 11 | 358 | 14.5 | 25.7 | 0.00 | 0.00 | 0.00 | 82 | 1034.5 |
| 20260503200035 | 10 | 2 | 17.7 | 27.4 | 0.00 | 0.00 | 0.00 | 82 | 1034.5 |
| 20260503195030 | 10 | 354 | 16.1 | 27.4 | 0.00 | 0.00 | 0.00 | 82 | 1034.4 |
| 20260503194024 | 10 | 8 | 20.9 | 33.8 | 0.00 | 0.00 | 0.00 | 82 | 1034.4 |
| 20260503193020 | 10 | 4 | 20.9 | 30.6 | 0.00 | 0.00 | 0.00 | 82 | 1034.2 |
| 20260503192035 | 10 | 17 | 19.3 | 33.8 | 0.00 | 0.00 | 0.00 | 82 | 1034.1 |
| 20260503191050 | 10 | 9 | 17.7 | 29.0 | 0.00 | 0.00 | 0.00 | 82 | 1034.2 |
| 20260503190025 | 10 | 5 | 16.1 | 22.5 | 0.00 | 0.00 | 0.00 | 82 | 1034.1 |
| 20260503185020 | 10 | 7 | 17.7 | 30.6 | 0.00 | 0.00 | 0.00 | 82 | 1034.1 |
| 20260503184156 | 10 | 5 | 16.1 | 30.6 | 0.00 | 0.00 | 0.00 | 82 | 1033.9 |
| 20260503183031 | 10 | 2 | 17.7 | 30.6 | 0.00 | 0.00 | 0.00 | 82 | 1034.1 |
| 20260503182026 | 10 | 8 | 17.7 | 29.0 | 0.00 | 0.00 | 0.00 | 81 | 1034.0 |
| 20260503181021 | 10 | 6 | 14.5 | 30.6 | 0.00 | 0.00 | 0.00 | 81 | 1034.1 |
| 20260503180017 | 10 | 10 | 16.1 | 29.0 | 0.00 | 0.00 | 0.00 | 82 | 1034.0 |
| 20260503175032 | 10 | 17 | 19.3 | 29.0 | 0.00 | 0.00 | 0.00 | 82 | 1034.1 |
| 20260503174027 | 10 | 6 | 14.5 | 27.4 | 0.00 | 0.00 | 0.00 | 82 | 1034.1 |
| 20260503173042 | 10 | 8 | 17.7 | 32.2 | 0.00 | 0.00 | 0.00 | 82 | 1034.0 |
| 20260503172017 | 10 | 6 | 12.9 | 24.1 | 0.00 | 0.00 | 0.00 | 82 | 1034.0 |
| 20260503171032 | 10 | 15 | 17.7 | 29.0 | 0.00 | 0.00 | 0.00 | 82 | 1034.1 |
| 20260503131035 | 10 | 9 | 17.7 | 27.4 | 0.00 | 0.00 | 0.00 | 84 | 1034.7 |
| 20260503081049 | 10 | 4 | 14.5 | 22.5 | 0.00 | 0.00 | 0.00 | 83 | 1033.9 |
| 20260503072024 | 10 | 353 | 16.1 | 25.7 | 0.00 | 0.00 | 0.00 | 83 | 1033.8 |
| 20260503071019 | 10 | 348 | 14.5 | 25.7 | 0.00 | 0.00 | 0.00 | 83 | 1033.7 |
| 20260503055020 | 10 | 358 | 16.1 | 24.1 | 0.00 | 0.00 | 0.00 | 80 | 1033.5 |
| 20260503054055 | 10 | 349 | 17.7 | 29.0 | 0.00 | 0.00 | 0.00 | 80 | 1033.4 |
| 20260503053030 | 10 | 349 | 17.7 | 33.8 | 0.00 | 0.00 | 0.00 | 79 | 1033.2 |
| 20260503052025 | 11 | 352 | 20.9 | 40.2 | 0.00 | 0.00 | 0.00 | 79 | 1033.3 |
| 20260503051020 | 11 | 354 | 22.5 | 32.2 | 0.00 | 0.00 | 0.00 | 78 | 1033.2 |
| 20260503050035 | 11 | 349 | 17.7 | 29.0 | 0.00 | 0.00 | 0.00 | 77 | 1033.3 |
| 20260503045031 | 11 | 341 | 22.5 | 33.8 | 0.00 | 0.00 | 0.00 | 77 | 1033.2 |
| 20260503044026 | 11 | 341 | 24.1 | 33.8 | 0.00 | 0.00 | 0.00 | 76 | 1033.1 |
| 20260503043021 | 12 | 344 | 19.3 | 33.8 | 0.00 | 0.00 | 0.00 | 75 | 1033.3 |
| 20260503042016 | 12 | 347 | 22.5 | 33.8 | 0.00 | 0.00 | 0.00 | 75 | 1033.2 |
| 20260503041031 | 12 | 352 | 20.9 | 32.2 | 0.00 | 0.00 | 0.00 | 74 | 1033.1 |
| 20260503040106 | 12 | 347 | 22.5 | 35.4 | 0.00 | 0.00 | 0.00 | 74 | 1033.1 |
| 20260503035021 | 13 | 345 | 22.5 | 32.2 | 0.00 | 0.00 | 0.00 | 74 | 1033.1 |
| 20260503034016 | 13 | 345 | 22.5 | 33.8 | 0.00 | 0.00 | 0.00 | 71 | 1033.2 |